CW9803 Weather Reports


time (UTC)temp
C
wind
direction
speed
KPH
gust
KPH
rain 1hr
cm
rain 24hr
cm
rain mn
cm
humidity
%
barometer
mb
20260510030943 16 149 1.6 1.6 0.00 0.00 0.00 50 1014.9
20260510030438 16 89 1.6 1.6 0.00 0.00 0.00 48 1014.9
20260510025936 16 92 1.6 1.6 0.00 0.00 0.00 49 1014.8
20260510025433 17 75 1.6 1.6 0.00 0.00 0.00 48 1014.7
20260510024931 17 81 1.6 1.6 0.00 0.00 0.00 46 1014.7
20260510024427 17 113 0.0 1.6 0.00 0.00 0.00 49 1014.6
20260510023923 17 116 0.0 0.0 0.00 0.00 0.00 52 1014.7
20260510023419 17 93 0.0 1.6 0.00 0.00 0.00 50 1014.7
20260510022917 18 102 0.0 0.0 0.00 0.00 0.00 48 1014.5
20260510022415 20 168 0.0 0.0 0.00 0.00 0.00 43 1014.6
20260510021915 21 231 1.6 1.6 0.00 0.00 0.00 36 1014.7
20260510021413 21 108 1.6 3.2 0.00 0.00 0.00 33 1014.5
20260510020909 22 175 1.6 1.6 0.00 0.00 0.00 30 1014.9
20260510020404 22 184 3.2 3.2 0.00 0.00 0.00 29 1014.8
20260510015900 22 151 1.6 1.6 0.00 0.00 0.00 29 1014.8
20260510015356 22 142 3.2 3.2 0.00 0.00 0.00 28 1014.7
20260510014851 23 240 3.2 3.2 0.00 0.00 0.00 28 1014.7
20260510014349 23 175 1.6 1.6 0.00 0.00 0.00 28 1014.6
20260510013845 23 132 1.6 1.6 0.00 0.00 0.00 29 1014.8
20260510013341 23 164 1.6 1.6 0.00 0.00 0.00 29 1014.7
20260510012836 24 147 1.6 1.6 0.00 0.00 0.00 30 1014.8
20260510012335 23 202 3.2 3.2 0.00 0.00 0.00 30 1015.0
20260510011830 23 332 3.2 3.2 0.00 0.00 0.00 27 1014.8
20260510011326 23 76 3.2 4.8 0.00 0.00 0.00 30 1014.8
20260510010823 23 55 4.8 4.8 0.00 0.00 0.00 31 1014.9
20260510010320 23 85 1.6 1.6 0.00 0.00 0.00 32 1014.7
20260510005817 25 69 3.2 6.4 0.00 0.00 0.00 31 1015.0
20260510005313 23 173 1.6 1.6 0.00 0.00 0.00 33 1014.8
20260510004811 23 126 1.6 1.6 0.00 0.00 0.00 33 1014.9
20260510004308 23 58 3.2 3.2 0.00 0.00 0.00 32 1014.8
20260510003806 24 140 0.0 1.6 0.00 0.00 0.00 33 1014.9
20260510003302 25 145 1.6 1.6 0.00 0.00 0.00 33 1015.0
20260510002801 25 110 1.6 3.2 0.00 0.00 0.00 33 1014.8
20260510002259 24 131 0.0 0.0 0.00 0.00 0.00 34 1014.9
20260510001755 24 149 1.6 1.6 0.00 0.00 0.00 33 1014.8
20260510001254 24 167 3.2 3.2 0.00 0.00 0.00 33 1014.9
20260510000749 25 99 1.6 3.2 0.00 0.00 0.00 32 1014.8
20260510000248 25 135 0.0 0.0 0.00 0.00 0.00 33 1014.9
20260509235744 25 157 0.0 0.0 0.00 0.00 0.00 32 1014.9
20260509235240 23 141 0.0 1.6 0.00 0.00 0.00 34 1014.9
20260509234736 23 78 4.8 4.8 0.00 0.00 0.00 34 1015.0
20260509234233 24 108 1.6 1.6 0.00 0.00 0.00 34 1015.0
20260509233731 23 96 1.6 1.6 0.00 0.00 0.00 34 1015.1
20260509233228 24 139 1.6 3.2 0.00 0.00 0.00 34 1015.1
20260509232724 24 119 1.6 1.6 0.00 0.00 0.00 33 1014.9
20260509232222 25 160 3.2 3.2 0.00 0.00 0.00 33 1014.9
20260509231718 25 165 1.6 1.6 0.00 0.00 0.00 31 1015.2
20260509231215 24 155 0.0 0.0 0.00 0.00 0.00 32 1015.3
20260509230713 23 144 3.2 3.2 0.00 0.00 0.00 35 1015.1
20260509230209 24 153 1.6 3.2 0.00 0.00 0.00 33 1015.2
20260509225705 24 151 3.2 6.4 0.00 0.00 0.00 34 1015.3
20260509225201 23 131 1.6 1.6 0.00 0.00 0.00 34 1015.1
20260509224656 25 175 3.2 4.8 0.00 0.00 0.00 34 1015.7
20260509224154 24 144 1.6 3.2 0.00 0.00 0.00 34 1015.2
20260509223651 24 120 4.8 4.8 0.00 0.00 0.00 34 1015.2
20260509223148 23 116 3.2 4.8 0.00 0.00 0.00 35 1015.5
20260509222644 23 152 0.0 0.0 0.00 0.00 0.00 37 1015.6
20260509222140 23 127 1.6 3.2 0.00 0.00 0.00 36 1015.6
20260509221636 23 148 1.6 1.6 0.00 0.00 0.00 35 1015.7
20260509221132 23 134 1.6 3.2 0.00 0.00 0.00 36 1015.6
20260509220628 23 118 4.8 6.4 0.00 0.00 0.00 36 1015.9
20260509220124 23 142 3.2 3.2 0.00 0.00 0.00 36 1015.9
20260509215620 22 111 1.6 1.6 0.00 0.00 0.00 38 1015.9
20260509215117 23 143 1.6 3.2 0.00 0.00 0.00 39 1016.0
20260509214614 23 157 4.8 4.8 0.00 0.00 0.00 36 1016.0
20260509214111 22 147 0.0 0.0 0.00 0.00 0.00 38 1016.0
20260509213607 22 89 4.8 6.4 0.00 0.00 0.00 36 1016.1
20260509213104 22 123 3.2 4.8 0.00 0.00 0.00 39 1016.3
20260509212601 22 76 1.6 4.8 0.00 0.00 0.00 38 1016.1
20260509212058 22 143 1.6 1.6 0.00 0.00 0.00 38 1016.3
20260509211554 23 146 0.0 0.0 0.00 0.00 0.00 37 1016.1
20260509211050 23 145 0.0 1.6 0.00 0.00 0.00 38 1016.3
20260509210548 23 147 1.6 3.2 0.00 0.00 0.00 36 1016.5
20260509210044 22 124 4.8 4.8 0.00 0.00 0.00 36 1016.5
20260509205544 21 181 1.6 1.6 0.00 0.00 0.00 36 1016.3
20260509205039 21 49 3.2 4.8 0.00 0.00 0.00 37 1016.6
20260509204536 22 173 1.6 1.6 0.00 0.00 0.00 36 1016.6
20260509204032 21 114 1.6 1.6 0.00 0.00 0.00 38 1016.8
20260509203528 22 139 3.2 4.8 0.00 0.00 0.00 36 1016.5
20260509203027 21 35 3.2 6.4 0.00 0.00 0.00 37 1016.4
20260509202521 22 88 1.6 3.2 0.00 0.00 0.00 36 1016.6
20260509202017 21 145 1.6 1.6 0.00 0.00 0.00 37 1016.6
20260509201512 21 86 3.2 4.8 0.00 0.00 0.00 38 1017.0
20260509201009 20 331 3.2 4.8 0.00 0.00 0.00 39 1016.9
20260509200504 21 127 4.8 4.8 0.00 0.00 0.00 40 1017.0
20260509200001 20 46 3.2 3.2 0.00 0.00 0.00 40 1017.2
20260509195456 20 81 4.8 9.7 0.00 0.00 0.00 42 1017.2
20260509194955 20 70 6.4 6.4 0.00 0.00 0.00 41 1017.3
20260509194451 21 132 0.0 0.0 0.00 0.00 0.00 40 1017.1
20260509193948 20 107 4.8 4.8 0.00 0.00 0.00 40 1017.4
20260509193443 20 150 3.2 4.8 0.00 0.00 0.00 41 1017.6
20260509192939 20 209 4.8 4.8 0.00 0.00 0.00 41 1017.6
20260509192436 21 135 4.8 6.4 0.00 0.00 0.00 40 1017.6
20260509191931 20 109 0.0 0.0 0.00 0.00 0.00 40 1017.7
20260509191426 20 116 0.0 1.6 0.00 0.00 0.00 40 1017.7
20260509190922 19 89 0.0 1.6 0.00 0.00 0.00 42 1017.8
20260509190420 19 151 3.2 3.2 0.00 0.00 0.00 42 1017.7
20260509185918 19 135 3.2 3.2 0.00 0.00 0.00 42 1017.7
20260509185415 19 127 1.6 4.8 0.00 0.00 0.00 43 1017.9
20260509184911 18 87 4.8 4.8 0.00 0.00 0.00 42 1018.1
20260509184408 19 141 0.0 1.6 0.00 0.00 0.00 41 1018.3
20260509183905 18 136 1.6 1.6 0.00 0.00 0.00 44 1018.1
20260509183359 18 96 3.2 4.8 0.00 0.00 0.00 43 1018.1
20260509182856 18 182 6.4 6.4 0.00 0.00 0.00 43 1018.3
20260509182353 19 163 9.7 11.3 0.00 0.00 0.00 44 1018.2
20260509181850 18 146 4.8 4.8 0.00 0.00 0.00 46 1018.3
20260509181347 18 144 1.6 3.2 0.00 0.00 0.00 43 1018.3
20260509180845 18 131 6.4 9.7 0.00 0.00 0.00 45 1018.4
20260509180341 17 164 6.4 9.7 0.00 0.00 0.00 45 1018.4
20260509175838 17 125 3.2 4.8 0.00 0.00 0.00 49 1018.5
20260509175334 17 128 4.8 4.8 0.00 0.00 0.00 48 1018.4
20260509174830 17 126 3.2 3.2 0.00 0.00 0.00 49 1018.6
20260509174326 17 173 8.0 11.3 0.00 0.00 0.00 47 1018.5
20260509173822 17 101 1.6 1.6 0.00 0.00 0.00 48 1018.5
20260509173317 17 107 4.8 4.8 0.00 0.00 0.00 47 1018.5
20260509172814 16 152 4.8 9.7 0.00 0.00 0.00 48 1018.5
20260509172311 16 111 4.8 4.8 0.00 0.00 0.00 50 1018.2
20260509171806 16 148 4.8 4.8 0.00 0.00 0.00 53 1018.5
20260509171302 16 165 6.4 9.7 0.00 0.00 0.00 52 1018.5
20260509170759 15 188 6.4 11.3 0.00 0.00 0.00 54 1018.6
20260509170255 15 126 3.2 4.8 0.00 0.00 0.00 55 1018.6
20260509165754 15 142 4.8 4.8 0.00 0.00 0.00 57 1018.7
20260509165249 15 145 4.8 6.4 0.00 0.00 0.00 58 1018.6
20260509164746 15 147 3.2 4.8 0.00 0.00 0.00 58 1018.5
20260509164241 15 124 3.2 3.2 0.00 0.00 0.00 58 1018.7
20260509163739 14 127 3.2 4.8 0.00 0.00 0.00 59 1019.0
20260509163235 14 136 1.6 1.6 0.00 0.00 0.00 59 1018.8
20260509162733 14 148 3.2 4.8 0.00 0.00 0.00 58 1018.9
20260509162228 15 131 0.0 0.0 0.00 0.00 0.00 56 1018.8
20260509161724 13 142 1.6 3.2 0.00 0.00 0.00 59 1018.9
20260509161220 14 157 1.6 3.2 0.00 0.00 0.00 58 1018.9
20260509160715 13 138 0.0 0.0 0.00 0.00 0.00 59 1018.7
20260509160212 13 105 0.0 1.6 0.00 0.00 0.00 59 1018.9
20260509155707 12 121 0.0 0.0 0.00 0.00 0.00 63 1018.8
20260509155204 12 112 0.0 0.0 0.00 0.00 0.00 63 1018.6
20260509154700 12 96 1.6 1.6 0.00 0.00 0.00 65 1018.8
20260509154157 11 125 1.6 1.6 0.00 0.00 0.00 67 1018.9
20260509153654 11 89 3.2 3.2 0.00 0.00 0.00 68 1019.0
20260509153150 11 158 3.2 3.2 0.00 0.00 0.00 68 1019.1
20260509152646 10 107 0.0 0.0 0.00 0.00 0.00 70 1018.8
20260509152144 10 139 0.0 0.0 0.00 0.00 0.00 72 1018.8
20260509151640 10 111 0.0 0.0 0.00 0.00 0.00 72 1018.8
20260509151137 8 94 3.2 3.2 0.00 0.00 0.00 75 1019.0
20260509150635 8 105 3.2 3.2 0.00 0.00 0.00 74 1018.9
20260509150133 8 94 1.6 3.2 0.00 0.00 0.00 74 1018.9
20260509145629 8 105 0.0 1.6 0.00 0.00 0.00 73 1019.0
20260509145124 8 116 0.0 0.0 0.00 0.00 0.00 75 1019.2
20260509144621 8 102 1.6 1.6 0.00 0.00 0.00 76 1019.0
20260509144118 7 116 0.0 0.0 0.00 0.00 0.00 77 1019.1
20260509143615 7 63 1.6 3.2 0.00 0.00 0.00 79 1019.1
20260509143113 7 124 0.0 0.0 0.00 0.00 0.00 76 1019.1
20260509142608 7 117 0.0 0.0 0.00 0.00 0.00 77 1019.1
20260509142105 6 116 0.0 0.0 0.00 0.00 0.00 79 1019.2
20260509141601 6 117 0.0 0.0 0.00 0.00 0.00 80 1019.1
20260509141057 6 100 0.0 0.0 0.00 0.00 0.00 80 1019.2
20260509140555 5 136 0.0 0.0 0.00 0.00 0.00 83 1019.5
20260509140052 5 134 0.0 0.0 0.00 0.00 0.00 83 1019.2
20260509135549 5 97 0.0 0.0 0.00 0.00 0.00 83 1019.2
20260509135047 4 107 0.0 0.0 0.00 0.00 0.00 85 1019.1
20260509134544 4 94 1.6 1.6 0.00 0.00 0.00 85 1019.1
20260509134041 4 110 0.0 1.6 0.00 0.00 0.00 86 1019.1
20260509133538 4 108 0.0 0.0 0.00 0.00 0.00 86 1019.2
20260509133035 3 113 0.0 0.0 0.00 0.00 0.00 88 1019.2
20260509132533 3 108 0.0 0.0 0.00 0.00 0.00 89 1019.0
20260509132031 3 107 0.0 0.0 0.00 0.00 0.00 89 1019.0
20260509131522 2 108 0.0 0.0 0.00 0.00 0.00 90 1019.0
20260509131019 2 154 0.0 1.6 0.00 0.00 0.00 90 1018.9
20260509130514 2 160 0.0 0.0 0.00 0.00 0.00 91 1019.0
20260509130012 2 113 0.0 0.0 0.00 0.00 0.00 92 1018.8
20260509125508 2 115 0.0 0.0 0.00 0.00 0.00 92 1018.9
20260509125004 1 121 0.0 0.0 0.00 0.00 0.00 92 1018.8
20260509124501 1 120 0.0 0.0 0.00 0.00 0.00 92 1018.8
20260509123958 1 134 0.0 0.0 0.00 0.00 0.00 92 1018.7
20260509123456 1 134 0.0 0.0 0.00 0.00 0.00 92 1018.8
20260509122951 1 172 1.6 1.6 0.00 0.00 0.00 93 1018.8
20260509122449 1 143 0.0 0.0 0.00 0.00 0.00 93 1018.9
20260509121945 1 126 0.0 0.0 0.00 0.00 0.00 92 1019.0
20260509121442 1 126 0.0 0.0 0.00 0.00 0.00 92 1018.7
20260509120940 1 99 0.0 0.0 0.00 0.00 0.00 92 1019.0
20260509120438 2 143 0.0 0.0 0.00 0.00 0.00 92 1018.8
20260509115936 2 148 0.0 0.0 0.00 0.00 0.00 92 1018.9
20260509115433 2 168 0.0 0.0 0.00 0.00 0.00 92 1018.7
20260509114930 2 117 0.0 0.0 0.00 0.00 0.00 92 1018.8
20260509114429 2 147 0.0 0.0 0.00 0.00 0.00 92 1018.6
20260509113928 2 120 0.0 0.0 0.00 0.00 0.00 92 1018.7
20260509113424 2 120 0.0 0.0 0.00 0.00 0.00 91 1018.7
20260509112921 2 125 0.0 0.0 0.00 0.00 0.00 90 1018.5
20260509112419 2 146 0.0 0.0 0.00 0.00 0.00 90 1018.6
20260509111915 2 151 0.0 0.0 0.00 0.00 0.00 90 1018.3
20260509111412 2 150 0.0 0.0 0.00 0.00 0.00 90 1018.4
20260509110910 2 154 0.0 0.0 0.00 0.00 0.00 90 1018.5
20260509110406 2 186 1.6 1.6 0.00 0.00 0.00 89 1018.3
20260509105904 3 114 0.0 0.0 0.00 0.00 0.00 89 1018.5
20260509105402 3 129 0.0 0.0 0.00 0.00 0.00 88 1018.3
20260509104858 3 148 0.0 0.0 0.00 0.00 0.00 87 1018.4
20260509104355 3 116 0.0 0.0 0.00 0.00 0.00 88 1018.5
20260509103853 3 109 0.0 0.0 0.00 0.00 0.00 88 1018.3
20260509103350 3 117 0.0 0.0 0.00 0.00 0.00 87 1018.3
20260509102849 3 112 0.0 0.0 0.00 0.00 0.00 87 1018.3
20260509102346 3 112 0.0 0.0 0.00 0.00 0.00 86 1018.2
20260509101841 3 112 0.0 0.0 0.00 0.00 0.00 86 1018.2
20260509101337 3 81 0.0 0.0 0.00 0.00 0.00 86 1017.9
20260509100836 3 224 1.6 1.6 0.00 0.00 0.00 86 1018.2
20260509100333 3 114 0.0 0.0 0.00 0.00 0.00 85 1018.2
20260509095829 4 125 0.0 0.0 0.00 0.00 0.00 85 1018.1
20260509095326 4 152 0.0 0.0 0.00 0.00 0.00 84 1017.9
20260509094824 4 143 1.6 1.6 0.00 0.00 0.00 85 1018.3
20260509094320 4 121 0.0 0.0 0.00 0.00 0.00 84 1018.3
20260509093818 4 120 0.0 0.0 0.00 0.00 0.00 83 1018.3
20260509093315 5 119 0.0 0.0 0.00 0.00 0.00 83 1018.3
20260509092814 5 155 0.0 1.6 0.00 0.00 0.00 82 1018.1
20260509092311 5 146 0.0 0.0 0.00 0.00 0.00 82 1017.7
20260509091809 5 118 0.0 0.0 0.00 0.00 0.00 82 1018.1
20260509091305 5 118 0.0 0.0 0.00 0.00 0.00 82 1018.1
20260509090803 5 117 0.0 0.0 0.00 0.00 0.00 80 1018.1
20260509090259 6 114 0.0 1.6 0.00 0.00 0.00 78 1017.8
20260509085757 6 144 0.0 0.0 0.00 0.00 0.00 77 1017.7
20260509085254 6 151 0.0 0.0 0.00 0.00 0.00 77 1017.8
20260509084751 6 162 1.6 1.6 0.00 0.00 0.00 77 1017.8
20260509084247 6 155 0.0 0.0 0.00 0.00 0.00 77 1017.7
20260509083746 6 148 0.0 0.0 0.00 0.00 0.00 76 1017.8
20260509083242 6 154 1.6 1.6 0.00 0.00 0.00 76 1017.8
20260509082738 6 150 0.0 0.0 0.00 0.00 0.00 76 1017.7
20260509082235 6 165 1.6 1.6 0.00 0.00 0.00 76 1017.6
20260509081732 6 160 0.0 1.6 0.00 0.00 0.00 76 1017.7
20260509081230 6 149 0.0 0.0 0.00 0.00 0.00 76 1017.8
20260509080728 6 155 0.0 0.0 0.00 0.00 0.00 75 1017.8
20260509080225 7 138 1.6 1.6 0.00 0.00 0.00 74 1017.6
20260509075723 6 116 0.0 0.0 0.00 0.00 0.00 76 1017.8
20260509075220 7 150 0.0 1.6 0.00 0.00 0.00 76 1017.6
20260509074717 6 148 0.0 0.0 0.00 0.00 0.00 75 1017.5
20260509074215 7 146 0.0 0.0 0.00 0.00 0.00 75 1017.3
20260509073711 7 150 0.0 0.0 0.00 0.00 0.00 74 1017.6
20260509073207 7 143 0.0 0.0 0.00 0.00 0.00 73 1017.5
20260509072704 7 145 0.0 0.0 0.00 0.00 0.00 73 1017.5
20260509072201 8 154 0.0 0.0 0.00 0.00 0.00 71 1017.4
20260509071657 8 140 0.0 0.0 0.00 0.00 0.00 71 1017.3
20260509071155 8 109 1.6 1.6 0.00 0.00 0.00 72 1017.5
20260509070651 8 147 0.0 0.0 0.00 0.00 0.00 71 1017.5
20260509070148 8 150 0.0 0.0 0.00 0.00 0.00 71 1017.4
20260509065644 8 130 0.0 0.0 0.00 0.00 0.00 70 1017.4
20260509065140 8 132 0.0 0.0 0.00 0.00 0.00 70 1017.2
20260509064637 8 140 0.0 0.0 0.00 0.00 0.00 69 1017.1
20260509064135 8 134 0.0 0.0 0.00 0.00 0.00 68 1017.3
20260509063632 8 115 0.0 1.6 0.00 0.00 0.00 68 1017.2
20260509063128 9 128 0.0 0.0 0.00 0.00 0.00 67 1017.2
20260509062626 10 141 0.0 0.0 0.00 0.00 0.00 64 1017.2
20260509062123 10 112 1.6 1.6 0.00 0.00 0.00 63 1017.0
20260509061620 10 153 0.0 0.0 0.00 0.00 0.00 63 1017.1
20260509061117 10 158 0.0 1.6 0.00 0.00 0.00 63 1017.2
20260509060615 10 158 1.6 1.6 0.00 0.00 0.00 61 1017.2
20260509060110 10 135 0.0 0.0 0.00 0.00 0.00 60 1017.1
20260509055606 10 142 1.6 1.6 0.00 0.00 0.00 60 1017.1
20260509055102 10 153 0.0 0.0 0.00 0.00 0.00 60 1017.0
20260509054559 10 158 0.0 0.0 0.00 0.00 0.00 60 1017.2
20260509054057 11 113 0.0 0.0 0.00 0.00 0.00 58 1017.1
20260509053555 12 112 0.0 0.0 0.00 0.00 0.00 54 1017.1
20260509053051 13 153 0.0 0.0 0.00 0.00 0.00 51 1016.8
20260509052550 13 169 1.6 1.6 0.00 0.00 0.00 49 1016.9
20260509052047 13 174 1.6 3.2 0.00 0.00 0.00 47 1017.0
20260509051545 14 223 3.2 4.8 0.00 0.00 0.00 46 1016.6
20260509051041 14 268 6.4 6.4 0.00 0.00 0.00 45 1016.8
20260509050538 14 159 1.6 3.2 0.00 0.00 0.00 46 1016.5
20260509050035 15 243 4.8 6.4 0.00 0.00 0.00 45 1016.5
20260509045532 14 247 4.8 4.8 0.00 0.00 0.00 46 1016.4
20260509045029 14 179 1.6 3.2 0.00 0.00 0.00 46 1016.0
20260509044527 14 191 3.2 3.2 0.00 0.00 0.00 47 1016.4
20260509044024 15 175 1.6 3.2 0.00 0.00 0.00 45 1016.2
20260509043520 15 281 6.4 6.4 0.00 0.00 0.00 44 1016.2
20260509043010 15 178 1.6 1.6 0.00 0.00 0.00 43 1016.0
20260509042507 15 235 3.2 4.8 0.00 0.00 0.00 43 1015.9
20260509042003 15 211 1.6 1.6 0.00 0.00 0.00 43 1016.0
20260509041500 15 149 0.0 1.6 0.00 0.00 0.00 43 1016.0
20260509040958 15 153 1.6 1.6 0.00 0.00 0.00 42 1016.0
20260509040456 16 175 3.2 3.2 0.00 0.00 0.00 41 1016.0
20260509035951 16 288 4.8 4.8 0.00 0.00 0.00 39 1016.0
20260509035449 16 244 6.4 11.3 0.00 0.00 0.00 40 1015.7
20260509034945 16 250 9.7 11.3 0.00 0.00 0.00 39 1015.7
20260509034443 15 205 6.4 6.4 0.00 0.00 0.00 43 1015.8
20260509033940 16 169 1.6 1.6 0.00 0.00 0.00 42 1015.7
20260509033437 16 216 3.2 4.8 0.00 0.00 0.00 39 1015.3
20260509032934 16 233 3.2 4.8 0.00 0.00 0.00 38 1015.6
20260509032431 16 250 6.4 9.7 0.00 0.00 0.00 38 1015.3
20260509031929 16 141 0.0 0.0 0.00 0.00 0.00 38 1015.3
20260509031426 16 150 0.0 0.0 0.00 0.00 0.00 37 1015.3